TimeEDT,TemperatureF,Dew PointF,Humidity,Sea Level PressureIn,VisibilityMPH,Wind Direction,Wind SpeedMPH,Gust SpeedMPH,PrecipitationIn,Events,Conditions,WindDirDegrees,DateUTC
12:53 AM,42.1,37.0,82,29.62,10.0,NE,5.8,-,N/A,,Overcast,50,2013-04-12 04:53:00
1:53 AM,42.1,37.9,85,29.60,9.0,NNE,3.5,-,N/A,,Overcast,30,2013-04-12 05:53:00
2:40 AM,39.2,35.6,87,29.57,7.0,North,6.9,-,N/A,,Overcast,10,2013-04-12 06:40:00
2:53 AM,39.0,36.0,89,29.59,7.0,North,4.6,-,N/A,,Overcast,10,2013-04-12 06:53:00
3:53 AM,39.9,36.0,86,29.55,7.0,East,6.9,-,N/A,,Overcast,80,2013-04-12 07:53:00
4:13 AM,39.2,37.4,93,29.53,7.0,East,8.1,-,N/A,,Overcast,90,2013-04-12 08:13:00
4:53 AM,43.0,39.0,86,29.53,7.0,Calm,Calm,-,N/A,,Overcast,0,2013-04-12 08:53:00
5:32 AM,42.8,37.4,81,29.51,7.0,ENE,3.5,-,N/A,,Overcast,70,2013-04-12 09:32:00
5:53 AM,42.1,39.0,89,29.51,7.0,Calm,Calm,-,N/A,,Overcast,0,2013-04-12 09:53:00
6:24 AM,42.8,39.2,87,29.47,6.0,Calm,Calm,-,0.00,Rain,Light Rain,0,2013-04-12 10:24:00
6:53 AM,43.0,39.0,86,29.48,5.0,Calm,Calm,-,0.01,Rain,Light Rain,0,2013-04-12 10:53:00
7:02 AM,42.8,39.2,87,29.47,4.0,Calm,Calm,-,0.01,Rain,Light Rain,0,2013-04-12 11:02:00
7:17 AM,42.8,39.2,87,29.47,3.0,Calm,Calm,-,0.04,Rain,Rain,0,2013-04-12 11:17:00
7:30 AM,42.8,39.2,87,29.47,2.5,Calm,Calm,-,0.08,Rain,Rain,0,2013-04-12 11:30:00
7:53 AM,45.0,42.1,90,29.48,1.8,Calm,Calm,-,0.12,Rain,Rain,0,2013-04-12 11:53:00
8:04 AM,48.2,44.6,87,29.47,1.2,South,3.5,-,0.04,Rain,Rain,190,2013-04-12 12:04:00
8:11 AM,48.2,44.6,87,29.47,1.0,Calm,Calm,-,0.06,Rain,Rain,0,2013-04-12 12:11:00
8:20 AM,48.2,44.6,87,29.47,1.0,WNW,6.9,-,0.08,Rain,Rain,300,2013-04-12 12:20:00
8:33 AM,51.8,50.0,94,29.47,1.8,SW,4.6,-,0.11,Rain,Rain,220,2013-04-12 12:33:00
8:53 AM,51.1,48.9,92,29.49,1.2,WSW,3.5,-,0.14,Rain,Light Rain,240,2013-04-12 12:53:00
9:06 AM,51.8,48.2,88,29.49,2.5,West,13.8,18.4,0.00,Rain,Light Rain,280,2013-04-12 13:06:00
9:11 AM,51.8,48.2,88,29.49,4.0,West,9.2,18.4,0.00,Rain,Light Rain,280,2013-04-12 13:11:00
9:18 AM,51.8,48.2,88,29.50,6.0,West,8.1,-,0.00,,Overcast,280,2013-04-12 13:18:00
9:30 AM,51.8,46.4,82,29.51,8.0,WNW,11.5,18.4,0.00,,Overcast,300,2013-04-12 13:30:00
9:40 AM,48.2,44.6,87,29.51,7.0,WNW,12.7,-,0.00,,Overcast,290,2013-04-12 13:40:00
9:53 AM,46.0,42.1,86,29.54,10.0,West,11.5,-,0.00,,Overcast,280,2013-04-12 13:53:00
10:09 AM,46.4,42.8,87,29.53,10.0,West,13.8,-,0.01,,Overcast,270,2013-04-12 14:09:00
10:53 AM,45.0,39.9,82,29.60,10.0,West,17.3,24.2,0.01,,Overcast,280,2013-04-12 14:53:00
11:20 AM,44.6,37.4,76,29.60,10.0,West,17.3,-,N/A,,Overcast,260,2013-04-12 15:20:00
11:53 AM,44.1,37.9,79,29.64,10.0,West,18.4,24.2,N/A,,Overcast,260,2013-04-12 15:53:00
12:53 PM,44.1,37.9,79,29.67,10.0,West,15.0,24.2,N/A,,Overcast,260,2013-04-12 16:53:00
1:53 PM,44.1,37.9,79,29.68,9.0,West,6.9,-,N/A,,Overcast,280,2013-04-12 17:53:00
2:29 PM,42.8,37.4,81,29.68,10.0,West,12.7,-,N/A,,Overcast,280,2013-04-12 18:29:00
2:53 PM,43.0,37.9,82,29.70,10.0,WNW,9.2,-,N/A,,Overcast,290,2013-04-12 18:53:00
3:31 PM,42.8,35.6,76,29.70,10.0,WNW,13.8,25.3,N/A,,Overcast,290,2013-04-12 19:31:00
3:53 PM,41.0,34.0,76,29.71,10.0,WNW,9.2,20.7,N/A,,Overcast,290,2013-04-12 19:53:00
4:53 PM,39.9,34.0,79,29.74,8.0,West,13.8,-,N/A,,Overcast,280,2013-04-12 20:53:00
5:25 PM,39.2,33.8,81,29.74,9.0,West,13.8,19.6,N/A,,Overcast,270,2013-04-12 21:25:00
5:53 PM,41.0,33.1,73,29.77,10.0,West,16.1,20.7,N/A,,Overcast,270,2013-04-12 21:53:00
6:53 PM,39.9,32.0,73,29.81,9.0,WSW,13.8,-,N/A,,Overcast,250,2013-04-12 22:53:00
7:01 PM,39.2,32.0,75,29.79,10.0,WSW,16.1,-,N/A,,Overcast,250,2013-04-12 23:01:00
7:53 PM,41.0,30.9,67,29.82,10.0,WSW,10.4,-,N/A,,Overcast,240,2013-04-12 23:53:00
8:53 PM,41.0,30.0,65,29.82,10.0,SW,9.2,-,N/A,,Overcast,220,2013-04-13 00:53:00
9:53 PM,39.9,30.0,68,29.84,10.0,SW,8.1,-,N/A,,Overcast,220,2013-04-13 01:53:00
10:53 PM,39.9,30.9,70,29.85,10.0,SW,10.4,-,N/A,,Overcast,230,2013-04-13 02:53:00
11:53 PM,39.9,30.9,70,29.84,10.0,SW,9.2,-,N/A,,Overcast,220,2013-04-13 03:53:00